| time (UTC) | temp F | wind direction | speed knots | gust knots | rain 1hr in | rain 24hr in | rain mn in | humidity % | barometer mb |
| 20260831191719 | 96 | 280 | 1.7 | 2.6 | 0.00 | 0.00 | 0.00 | 49 | 1019.3 |
| 20260831191215 | 96 | 222 | 2.6 | 6.1 | 0.00 | 0.00 | 0.00 | 49 | 1019.3 |
| 20260831190710 | 96 | 276 | 2.6 | 4.3 | 0.00 | 0.00 | 0.00 | 48 | 1019.3 |
| 20260831190209 | 96 | 151 | 5.2 | 7.0 | 0.00 | 0.00 | 0.00 | 47 | 1019.4 |
| 20260831185704 | 96 | 181 | 4.3 | 6.1 | 0.00 | 0.00 | 0.00 | 48 | 1019.4 |
| 20260831185159 | 95 | 162 | 4.3 | 5.2 | 0.00 | 0.00 | 0.00 | 51 | 1019.6 |
| 20260831184658 | 96 | 184 | 5.2 | 7.0 | 0.00 | 0.00 | 0.00 | 50 | 1019.5 |
| 20260831184155 | 95 | 189 | 2.6 | 4.3 | 0.00 | 0.00 | 0.00 | 48 | 1019.8 |
| 20260831183654 | 95 | 170 | 4.3 | 5.2 | 0.00 | 0.00 | 0.00 | 49 | 1019.7 |
| 20260831183153 | 95 | 191 | 4.3 | 6.1 | 0.00 | 0.00 | 0.00 | 50 | 1019.6 |
| 20260831182652 | 95 | 200 | 3.5 | 4.3 | 0.00 | 0.00 | 0.00 | 50 | 1019.8 |
| 20260831182148 | 95 | 156 | 7.8 | 8.7 | 0.00 | 0.00 | 0.00 | 48 | 1019.8 |
| 20260831181644 | 95 | 176 | 5.2 | 7.0 | 0.00 | 0.00 | 0.00 | 50 | 1019.7 |
| 20260831181143 | 95 | 192 | 2.6 | 2.6 | 0.00 | 0.00 | 0.00 | 52 | 1019.9 |
| 20260831180639 | 95 | 191 | 0.9 | 1.7 | 0.00 | 0.00 | 0.00 | 53 | 1019.9 |
| 20260831180134 | 95 | 182 | 2.6 | 4.3 | 0.00 | 0.00 | 0.00 | 53 | 1020.0 |
| 20260831175628 | 95 | 163 | 3.5 | 5.2 | 0.00 | 0.00 | 0.00 | 54 | 1020.2 |
| 20260831175125 | 94 | 237 | 0.9 | 0.9 | 0.00 | 0.00 | 0.00 | 59 | 1020.1 |
| 20260831174625 | 95 | 168 | 3.5 | 4.3 | 0.00 | 0.00 | 0.00 | 53 | 1020.2 |
| 20260831174120 | 95 | 199 | 2.6 | 2.6 | 0.00 | 0.00 | 0.00 | 53 | 1020.3 |
| 20260831173618 | 94 | 200 | 1.7 | 1.7 | 0.00 | 0.00 | 0.00 | 55 | 1020.3 |
| 20260831173115 | 93 | 181 | 3.5 | 4.3 | 0.00 | 0.00 | 0.00 | 56 | 1020.3 |
| 20260831172614 | 93 | 151 | 4.3 | 6.1 | 0.00 | 0.00 | 0.00 | 56 | 1020.5 |
| 20260831172114 | 93 | 104 | 5.2 | 6.1 | 0.00 | 0.00 | 0.00 | 56 | 1020.4 |
| 20260831171610 | 93 | 220 | 0.9 | 0.9 | 0.00 | 0.00 | 0.00 | 57 | 1020.3 |
| 20260831171107 | 93 | 214 | 2.6 | 4.3 | 0.00 | 0.00 | 0.00 | 56 | 1020.7 |
| 20260831170603 | 92 | 133 | 2.6 | 4.3 | 0.00 | 0.00 | 0.00 | 59 | 1020.7 |
| 20260831170100 | 92 | 196 | 1.7 | 1.7 | 0.00 | 0.00 | 0.00 | 58 | 1020.8 |
| 20260831165555 | 92 | 178 | 0.9 | 0.9 | 0.00 | 0.00 | 0.00 | 58 | 1020.7 |
| 20260831165052 | 92 | 211 | 5.2 | 7.8 | 0.00 | 0.00 | 0.00 | 57 | 1020.6 |
| 20260831164547 | 92 | 201 | 4.3 | 5.2 | 0.00 | 0.00 | 0.00 | 58 | 1020.8 |
| 20260831164043 | 92 | 193 | 1.7 | 2.6 | 0.00 | 0.00 | 0.00 | 60 | 1020.6 |
| 20260831163537 | 91 | 120 | 4.3 | 6.1 | 0.00 | 0.00 | 0.00 | 62 | 1020.7 |
| 20260831163033 | 91 | 184 | 1.7 | 1.7 | 0.00 | 0.00 | 0.00 | 61 | 1020.8 |
| 20260831162532 | 92 | 131 | 4.3 | 8.7 | 0.00 | 0.00 | 0.00 | 60 | 1020.6 |
| 20260831162030 | 92 | 213 | 2.6 | 4.3 | 0.00 | 0.00 | 0.00 | 59 | 1020.8 |
| 20260831161527 | 92 | 198 | 2.6 | 2.6 | 0.00 | 0.00 | 0.00 | 63 | 1020.6 |
| 20260831161023 | 91 | 193 | 0.0 | 0.0 | 0.00 | 0.00 | 0.00 | 66 | 1020.6 |
| 20260831160522 | 89 | 173 | 1.7 | 1.7 | 0.00 | 0.00 | 0.00 | 65 | 1020.7 |
| 20260831160017 | 89 | 196 | 4.3 | 7.0 | 0.00 | 0.00 | 0.00 | 66 | 1020.5 |
| 20260831155512 | 89 | 201 | 1.7 | 1.7 | 0.00 | 0.00 | 0.00 | 69 | 1020.7 |
| 20260831155007 | 90 | 222 | 0.0 | 0.0 | 0.00 | 0.00 | 0.00 | 68 | 1021.0 |
| 20260831154503 | 90 | 199 | 2.6 | 4.3 | 0.00 | 0.00 | 0.00 | 66 | 1020.7 |
| 20260831154002 | 89 | 201 | 1.7 | 1.7 | 0.00 | 0.00 | 0.00 | 68 | 1020.4 |
| 20260831153457 | 87 | 189 | 2.6 | 2.6 | 0.00 | 0.00 | 0.00 | 72 | 1020.6 |
| 20260831152954 | 86 | 177 | 2.6 | 2.6 | 0.00 | 0.00 | 0.00 | 74 | 1020.8 |
| 20260831152449 | 87 | 198 | 0.9 | 0.9 | 0.00 | 0.00 | 0.00 | 73 | 1020.5 |
| 20260831151944 | 87 | 160 | 0.9 | 1.7 | 0.00 | 0.00 | 0.00 | 71 | 1020.5 |
| 20260831151443 | 88 | 199 | 1.7 | 1.7 | 0.00 | 0.00 | 0.00 | 73 | 1020.6 |
| 20260831150938 | 87 | 226 | 0.9 | 0.9 | 0.00 | 0.00 | 0.00 | 73 | 1020.5 |
| 20260831150434 | 87 | 168 | 3.5 | 4.3 | 0.00 | 0.00 | 0.00 | 74 | 1020.4 |
| 20260831145933 | 87 | 209 | 0.9 | 0.9 | 0.00 | 0.00 | 0.00 | 73 | 1020.4 |
| 20260831145430 | 87 | 184 | 2.6 | 4.3 | 0.00 | 0.00 | 0.00 | 75 | 1020.3 |
| 20260831144925 | 87 | 160 | 1.7 | 2.6 | 0.00 | 0.00 | 0.00 | 76 | 1020.5 |
| 20260831144421 | 87 | 179 | 2.6 | 5.2 | 0.00 | 0.00 | 0.00 | 75 | 1020.3 |
| 20260831143916 | 87 | 207 | 2.6 | 2.6 | 0.00 | 0.00 | 0.00 | 75 | 1020.1 |
| 20260831143411 | 87 | 156 | 2.6 | 2.6 | 0.00 | 0.00 | 0.00 | 75 | 1020.1 |
| 20260831142907 | 86 | 205 | 1.7 | 2.6 | 0.00 | 0.00 | 0.00 | 77 | 1020.1 |
| 20260831142402 | 86 | 170 | 1.7 | 2.6 | 0.00 | 0.00 | 0.00 | 77 | 1019.9 |
| 20260831141856 | 87 | 223 | 3.5 | 5.2 | 0.00 | 0.00 | 0.00 | 77 | 1020.3 |
| 20260831141350 | 86 | 203 | 1.7 | 2.6 | 0.00 | 0.00 | 0.00 | 79 | 1019.9 |
| 20260831140846 | 85 | 178 | 1.7 | 2.6 | 0.00 | 0.00 | 0.00 | 79 | 1020.0 |
| 20260831140345 | 85 | 193 | 0.9 | 1.7 | 0.00 | 0.00 | 0.00 | 81 | 1020.0 |
| 20260831135844 | 84 | 223 | 0.0 | 0.9 | 0.00 | 0.00 | 0.00 | 83 | 1019.9 |
| 20260831135334 | 84 | 165 | 1.7 | 2.6 | 0.00 | 0.00 | 0.00 | 83 | 1019.9 |
| 20260831134829 | 83 | 193 | 2.6 | 2.6 | 0.00 | 0.00 | 0.00 | 84 | 1020.0 |
| 20260831134326 | 84 | 163 | 2.6 | 4.3 | 0.00 | 0.00 | 0.00 | 83 | 1020.0 |
| 20260831133824 | 83 | 204 | 2.6 | 2.6 | 0.00 | 0.00 | 0.00 | 84 | 1019.9 |
| 20260831133324 | 83 | 213 | 1.7 | 2.6 | 0.00 | 0.00 | 0.00 | 86 | 1019.6 |
| 20260831132820 | 82 | 219 | 0.0 | 0.0 | 0.00 | 0.00 | 0.00 | 88 | 1019.6 |
| 20260831132315 | 81 | 220 | 0.0 | 0.0 | 0.00 | 0.00 | 0.00 | 90 | 1019.8 |
| 20260831131809 | 0 | 0.0 | 0.0 | 0.00 | 0.00 | 0.00 | 1019.7 | ||
| 20260831131305 | 0 | 0.0 | 0.0 | 0.00 | 0.00 | 0.00 | 1019.8 | ||
| 20260831130759 | 0 | 0.0 | 0.0 | 0.00 | 0.00 | 0.00 | 1019.7 | ||
| 20260831130255 | 76 | 212 | 0.0 | 0.0 | 0.00 | 0.00 | 0.00 | 99 | 1019.6 |
| 20260831125754 | 76 | 212 | 0.0 | 0.0 | 0.00 | 0.00 | 0.00 | 99 | 1019.6 |
| 20260831125250 | 76 | 211 | 0.0 | 0.9 | 0.00 | 0.00 | 0.00 | 99 | 1019.8 |
| 20260831124744 | 75 | 216 | 0.0 | 0.0 | 0.00 | 0.00 | 0.00 | 99 | 1019.5 |
| 20260831124241 | 75 | 212 | 0.0 | 0.0 | 0.00 | 0.00 | 0.00 | 99 | 1019.5 |
| 20260831123740 | 75 | 218 | 0.0 | 0.0 | 0.00 | 0.00 | 0.00 | 99 | 1019.4 |
| 20260831123239 | 75 | 218 | 0.0 | 0.0 | 0.00 | 0.00 | 0.00 | 99 | 1019.5 |
| 20260831122733 | 75 | 218 | 0.0 | 0.0 | 0.00 | 0.00 | 0.00 | 99 | 1019.5 |
| 20260831122230 | 75 | 218 | 0.0 | 0.0 | 0.00 | 0.00 | 0.00 | 99 | 1019.5 |
| 20260831121729 | 75 | 216 | 0.0 | 0.0 | 0.00 | 0.00 | 0.00 | 99 | 1019.6 |
| 20260831121226 | 75 | 218 | 0.0 | 0.0 | 0.00 | 0.00 | 0.00 | 99 | 1019.5 |
| 20260831120721 | 75 | 222 | 0.0 | 0.0 | 0.00 | 0.00 | 0.00 | 99 | 1019.3 |
| 20260831120215 | 75 | 222 | 0.0 | 0.0 | 0.00 | 0.00 | 0.00 | 99 | 1019.3 |
| 20260831115711 | 75 | 222 | 0.0 | 0.0 | 0.00 | 0.00 | 0.00 | 99 | 1019.2 |
| 20260831115207 | 75 | 222 | 0.0 | 0.0 | 0.00 | 0.00 | 0.00 | 99 | 1019.5 |
| 20260831114706 | 75 | 222 | 0.0 | 0.0 | 0.00 | 0.00 | 0.00 | 99 | 1019.2 |
| 20260831114205 | 75 | 222 | 0.0 | 0.0 | 0.00 | 0.00 | 0.00 | 98 | 1019.3 |
| 20260831113701 | 75 | 222 | 0.0 | 0.0 | 0.00 | 0.00 | 0.00 | 98 | 1019.3 |
| 20260831113155 | 75 | 222 | 0.0 | 0.0 | 0.00 | 0.00 | 0.00 | 98 | 1019.3 |
| 20260831112654 | 75 | 222 | 0.0 | 0.0 | 0.00 | 0.00 | 0.00 | 98 | 1019.3 |
| 20260831112150 | 0 | 0.0 | 0.0 | 0.00 | 0.00 | 0.00 | 1019.5 | ||
| 20260831111645 | 75 | 223 | 0.0 | 0.0 | 0.00 | 0.00 | 0.00 | 97 | 1019.6 |
| 20260831111141 | 75 | 223 | 0.0 | 0.0 | 0.00 | 0.00 | 0.00 | 97 | 1019.4 |
| 20260831110637 | 75 | 223 | 0.0 | 0.0 | 0.00 | 0.00 | 0.00 | 97 | 1019.1 |
| 20260831110132 | 0 | 0.0 | 0.0 | 0.00 | 0.00 | 0.00 | 1019.2 | ||
| 20260831105631 | 0 | 0.0 | 0.0 | 0.00 | 0.00 | 0.00 | 1019.2 | ||
| 20260831105126 | 0 | 0.0 | 0.0 | 0.00 | 0.00 | 0.00 | 1019.3 | ||
| 20260831104621 | 0 | 0.0 | 0.0 | 0.00 | 0.00 | 0.00 | 1019.5 | ||
| 20260831104118 | 0 | 0.0 | 0.0 | 0.00 | 0.00 | 0.00 | 1019.2 | ||
| 20260831103613 | 76 | 222 | 0.0 | 0.0 | 0.00 | 0.00 | 0.00 | 95 | 1019.2 |
| 20260831103109 | 76 | 222 | 0.0 | 0.0 | 0.00 | 0.00 | 0.00 | 95 | 1019.4 |
| 20260831102608 | 76 | 222 | 0.0 | 0.0 | 0.00 | 0.00 | 0.00 | 95 | 1019.4 |
| 20260831102104 | 76 | 223 | 0.0 | 0.0 | 0.00 | 0.00 | 0.00 | 95 | 1019.5 |
| 20260831101603 | 76 | 223 | 0.0 | 0.0 | 0.00 | 0.00 | 0.00 | 95 | 1019.5 |
| 20260831101100 | 76 | 223 | 0.0 | 0.0 | 0.00 | 0.00 | 0.00 | 95 | 1019.1 |
| 20260831100555 | 76 | 223 | 0.0 | 0.0 | 0.00 | 0.00 | 0.00 | 94 | 1019.2 |
| 20260831100051 | 0 | 0.0 | 0.0 | 0.00 | 0.00 | 0.00 | 1019.2 | ||
| 20260831095549 | 0 | 0.0 | 0.0 | 0.00 | 0.00 | 0.00 | 1019.1 | ||
| 20260831095044 | 77 | 226 | 0.0 | 0.0 | 0.00 | 0.00 | 0.00 | 93 | 1019.2 |
| 20260831094540 | 77 | 226 | 0.0 | 0.0 | 0.00 | 0.00 | 0.00 | 93 | 1019.3 |
| 20260831094036 | 77 | 226 | 0.0 | 0.0 | 0.00 | 0.00 | 0.00 | 93 | 1019.2 |
| 20260831093531 | 77 | 226 | 0.0 | 0.0 | 0.00 | 0.00 | 0.00 | 93 | 1019.5 |
| 20260831093027 | 77 | 226 | 0.0 | 0.0 | 0.00 | 0.00 | 0.00 | 93 | 1019.5 |
| 20260831092523 | 77 | 223 | 0.0 | 0.0 | 0.00 | 0.00 | 0.00 | 92 | 1019.1 |
| 20260831092019 | 77 | 223 | 0.0 | 0.0 | 0.00 | 0.00 | 0.00 | 92 | 1019.1 |
| 20260831091513 | 0 | 0.0 | 0.0 | 0.00 | 0.00 | 0.00 | 1019.2 | ||
| 20260831091009 | 0 | 0.0 | 0.0 | 0.00 | 0.00 | 0.00 | 1019.2 | ||
| 20260831090504 | 0 | 0.0 | 0.0 | 0.00 | 0.00 | 0.00 | 1019.3 | ||
| 20260831090000 | 0 | 0.0 | 0.0 | 0.00 | 0.00 | 0.00 | 1019.3 | ||
| 20260831085455 | 0 | 0.0 | 0.0 | 0.00 | 0.00 | 0.00 | 1019.3 | ||
| 20260831084954 | 78 | 199 | 1.7 | 2.6 | 0.00 | 0.00 | 0.00 | 89 | 1019.0 |
| 20260831084451 | 78 | 199 | 1.7 | 2.6 | 0.00 | 0.00 | 0.00 | 89 | 1019.3 |
| 20260831083948 | 78 | 199 | 1.7 | 2.6 | 0.00 | 0.00 | 0.00 | 89 | 1019.3 |
| 20260831083442 | 78 | 209 | 0.0 | 0.9 | 0.00 | 0.00 | 0.00 | 88 | 1019.4 |
| 20260831082942 | 0 | 0.0 | 0.0 | 0.00 | 0.00 | 0.00 | 1019.3 | ||
| 20260831082443 | 0 | 0.0 | 0.0 | 0.00 | 0.00 | 0.00 | 1019.1 | ||
| 20260831081936 | 78 | 218 | 0.0 | 0.0 | 0.00 | 0.00 | 0.00 | 86 | 1019.1 |
| 20260831081432 | 78 | 218 | 0.0 | 0.0 | 0.00 | 0.00 | 0.00 | 86 | 1019.3 |
| 20260831080928 | 78 | 218 | 0.0 | 0.0 | 0.00 | 0.00 | 0.00 | 86 | 1019.1 |
| 20260831080423 | 79 | 207 | 0.9 | 0.9 | 0.00 | 0.00 | 0.00 | 85 | 1019.0 |
| 20260831075919 | 79 | 207 | 0.9 | 0.9 | 0.00 | 0.00 | 0.00 | 85 | 1019.2 |
| 20260831075414 | 79 | 207 | 0.9 | 0.9 | 0.00 | 0.00 | 0.00 | 85 | 1019.1 |
| 20260831074909 | 0 | 0.0 | 0.0 | 0.00 | 0.00 | 0.00 | 1019.2 | ||
| 20260831074408 | 80 | 226 | 0.0 | 0.0 | 0.00 | 0.00 | 0.00 | 83 | 1019.1 |
| 20260831073903 | 80 | 226 | 0.0 | 0.0 | 0.00 | 0.00 | 0.00 | 83 | 1019.4 |
| 20260831073403 | 80 | 226 | 0.0 | 0.0 | 0.00 | 0.00 | 0.00 | 83 | 1019.1 |
| 20260831072857 | 0 | 0.0 | 0.0 | 0.00 | 0.00 | 0.00 | 1019.2 | ||
| 20260831072353 | 80 | 207 | 0.0 | 0.9 | 0.00 | 0.00 | 0.00 | 82 | 1019.4 |
| 20260831071849 | 80 | 207 | 0.0 | 0.9 | 0.00 | 0.00 | 0.00 | 82 | 1019.3 |
| 20260831071348 | 80 | 176 | 1.7 | 1.7 | 0.00 | 0.00 | 0.00 | 81 | 1019.2 |
| 20260831070843 | 80 | 176 | 1.7 | 1.7 | 0.00 | 0.00 | 0.00 | 81 | 1019.1 |
| 20260831070342 | 0 | 0.0 | 0.0 | 0.00 | 0.00 | 0.00 | 1019.3 | ||
| 20260831065842 | 0 | 0.0 | 0.0 | 0.00 | 0.00 | 0.00 | 1019.3 | ||
| 20260831065339 | 81 | 207 | 1.7 | 2.6 | 0.00 | 0.00 | 0.00 | 79 | 1019.2 |
| 20260831064835 | 81 | 207 | 1.7 | 2.6 | 0.00 | 0.00 | 0.00 | 79 | 1019.3 |
| 20260831064330 | 81 | 207 | 1.7 | 2.6 | 0.00 | 0.00 | 0.00 | 79 | 1019.4 |
| 20260831063826 | 0 | 0.0 | 0.0 | 0.00 | 0.00 | 0.00 | 1019.2 | ||
| 20260831063326 | 0 | 0.0 | 0.0 | 0.00 | 0.00 | 0.00 | 1019.3 | ||
| 20260831062821 | 0 | 0.0 | 0.0 | 0.00 | 0.00 | 0.00 | 1019.3 | ||
| 20260831062316 | 0 | 0.0 | 0.0 | 0.00 | 0.00 | 0.00 | 1019.4 | ||
| 20260831061815 | 83 | 228 | 2.6 | 2.6 | 0.00 | 0.00 | 0.00 | 76 | 1019.2 |
| 20260831061314 | 83 | 228 | 2.6 | 2.6 | 0.00 | 0.00 | 0.00 | 76 | 1019.4 |
| 20260831060811 | 83 | 228 | 2.6 | 2.6 | 0.00 | 0.00 | 0.00 | 76 | 1019.2 |
| 20260831060310 | 83 | 170 | 4.3 | 7.0 | 0.00 | 0.00 | 0.00 | 75 | 1019.2 |
| 20260831055810 | 83 | 170 | 4.3 | 7.0 | 0.00 | 0.00 | 0.00 | 75 | 1019.0 |
| 20260831055306 | 83 | 170 | 4.3 | 7.0 | 0.00 | 0.00 | 0.00 | 75 | 1019.0 |
| 20260831054800 | 83 | 214 | 3.5 | 6.1 | 0.00 | 0.00 | 0.00 | 75 | 1019.0 |
| 20260831054255 | 0 | 0.0 | 0.0 | 0.00 | 0.00 | 0.00 | 1018.9 | ||
| 20260831053754 | 0 | 0.0 | 0.0 | 0.00 | 0.00 | 0.00 | 1019.0 | ||
| 20260831053253 | 0 | 0.0 | 0.0 | 0.00 | 0.00 | 0.00 | 1018.8 | ||
| 20260831052747 | 84 | 155 | 4.3 | 6.1 | 0.00 | 0.00 | 0.00 | 75 | 1018.7 |
| 20260831052247 | 84 | 155 | 4.3 | 6.1 | 0.00 | 0.00 | 0.00 | 75 | 1018.6 |
| 20260831051744 | 84 | 184 | 2.6 | 4.3 | 0.00 | 0.00 | 0.00 | 75 | 1018.6 |
| 20260831051244 | 0 | 0.0 | 0.0 | 0.00 | 0.00 | 0.00 | 1018.5 | ||
| 20260831050739 | 0 | 0.0 | 0.0 | 0.00 | 0.00 | 0.00 | 1018.8 | ||
| 20260831050237 | 0 | 0.0 | 0.0 | 0.00 | 0.00 | 0.00 | 1018.7 | ||
| 20260831045733 | 0 | 0.0 | 0.0 | 0.00 | 0.00 | 0.00 | 1018.7 | ||
| 20260831045233 | 0 | 0.0 | 0.0 | 0.00 | 0.00 | 0.00 | 1018.5 | ||
| 20260831044727 | 86 | 222 | 3.5 | 5.2 | 0.00 | 0.00 | 0.00 | 70 | 1018.5 |
| 20260831044223 | 86 | 222 | 3.5 | 5.2 | 0.00 | 0.00 | 0.00 | 70 | 1018.5 |
| 20260831043719 | 86 | 222 | 3.5 | 5.2 | 0.00 | 0.00 | 0.00 | 70 | 1018.4 |
| 20260831043214 | 0 | 0.0 | 0.0 | 0.00 | 0.00 | 0.00 | 1018.5 | ||
| 20260831042713 | 86 | 190 | 6.1 | 7.0 | 0.00 | 0.00 | 0.00 | 68 | 1018.3 |
| 20260831042208 | 86 | 190 | 6.1 | 7.0 | 0.00 | 0.00 | 0.00 | 68 | 1018.6 |
| 20260831041703 | 86 | 190 | 6.1 | 7.0 | 0.00 | 0.00 | 0.00 | 68 | 1018.4 |
| 20260831041202 | 0 | 0.0 | 0.0 | 0.00 | 0.00 | 0.00 | 1018.3 | ||
| 20260831040657 | 0 | 0.0 | 0.0 | 0.00 | 0.00 | 0.00 | 1018.6 | ||
| 20260831040156 | 0 | 0.0 | 0.0 | 0.00 | 0.00 | 0.00 | 1018.6 | ||
| 20260831035655 | 0 | 0.0 | 0.0 | 0.00 | 0.00 | 0.00 | 1018.5 | ||
| 20260831035150 | 0 | 0.0 | 0.0 | 0.00 | 0.00 | 0.00 | 1018.3 | ||
| 20260831034648 | 0 | 0.0 | 0.0 | 0.00 | 0.00 | 0.00 | 1018.5 | ||
| 20260831034144 | 88 | 171 | 2.6 | 2.6 | 0.00 | 0.00 | 0.00 | 63 | 1018.2 |
| 20260831033640 | 88 | 171 | 2.6 | 2.6 | 0.00 | 0.00 | 0.00 | 63 | 1018.3 |
| 20260831033134 | 88 | 171 | 2.6 | 2.6 | 0.00 | 0.00 | 0.00 | 63 | 1018.1 |
| 20260831032629 | 0 | 0.0 | 0.0 | 0.00 | 0.00 | 0.00 | 1018.2 | ||
| 20260831032125 | 0 | 0.0 | 0.0 | 0.00 | 0.00 | 0.00 | 1018.0 | ||
| 20260831031624 | 0 | 0.0 | 0.0 | 0.00 | 0.00 | 0.00 | 1017.9 | ||
| 20260831031124 | 0 | 0.0 | 0.0 | 0.00 | 0.00 | 0.00 | 1017.9 | ||
| 20260831030622 | 0 | 0.0 | 0.0 | 0.00 | 0.00 | 0.00 | 1017.8 | ||
| 20260831030122 | 89 | 183 | 5.2 | 7.0 | 0.00 | 0.00 | 0.00 | 59 | 1017.8 |
| 20260831025620 | 89 | 183 | 5.2 | 7.0 | 0.00 | 0.00 | 0.00 | 59 | 1017.8 |
| 20260831025115 | 89 | 183 | 5.2 | 7.0 | 0.00 | 0.00 | 0.00 | 59 | 1017.5 |
| 20260831024612 | 89 | 195 | 4.3 | 6.1 | 0.00 | 0.00 | 0.00 | 59 | 1017.4 |
| 20260831024110 | 0 | 0.0 | 0.0 | 0.00 | 0.00 | 0.00 | 1017.3 | ||
| 20260831023609 | 0 | 0.0 | 0.0 | 0.00 | 0.00 | 0.00 | 1017.3 | ||
| 20260831023108 | 89 | 180 | 2.6 | 4.3 | 0.00 | 0.00 | 0.00 | 53 | 1017.0 |
| 20260831022603 | 89 | 180 | 2.6 | 4.3 | 0.00 | 0.00 | 0.00 | 53 | 1017.3 |
| 20260831022058 | 89 | 180 | 2.6 | 4.3 | 0.00 | 0.00 | 0.00 | 53 | 1016.8 |
| 20260831021556 | 89 | 173 | 3.5 | 4.3 | 0.00 | 0.00 | 0.00 | 54 | 1017.0 |
| 20260831021052 | 89 | 175 | 2.6 | 2.6 | 0.00 | 0.00 | 0.00 | 54 | 1016.6 |
| 20260831020547 | 88 | 199 | 0.0 | 0.0 | 0.00 | 0.00 | 0.00 | 57 | 1016.5 |
| 20260831020037 | 0 | 0.0 | 0.0 | 0.00 | 0.00 | 0.00 | 1016.5 | ||
| 20260831015533 | 0 | 0.0 | 0.0 | 0.00 | 0.00 | 0.00 | 1016.7 | ||
| 20260831015027 | 0 | 0.0 | 0.0 | 0.00 | 0.00 | 0.00 | 1016.4 | ||
| 20260831014522 | 0 | 0.0 | 0.0 | 0.00 | 0.00 | 0.00 | 1016.4 | ||
| 20260831014018 | 0 | 0.0 | 0.0 | 0.00 | 0.00 | 0.00 | 1016.3 | ||
| 20260831013514 | 0 | 0.0 | 0.0 | 0.00 | 0.00 | 0.00 | 1016.3 | ||
| 20260831013008 | 0 | 0.0 | 0.0 | 0.00 | 0.00 | 0.00 | 1016.1 | ||
| 20260831012503 | 92 | 203 | 0.9 | 0.9 | 0.00 | 0.00 | 0.00 | 49 | 1016.0 |
| 20260831012002 | 92 | 203 | 0.9 | 0.9 | 0.00 | 0.00 | 0.00 | 49 | 1016.1 |
| 20260831011457 | 92 | 203 | 0.9 | 0.9 | 0.00 | 0.00 | 0.00 | 49 | 1016.1 |
| 20260831010953 | 93 | 219 | 0.9 | 0.9 | 0.00 | 0.00 | 0.00 | 49 | 1016.0 |
| 20260831010453 | 93 | 196 | 1.7 | 2.6 | 0.00 | 0.00 | 0.00 | 48 | 1015.9 |
| 20260831005949 | 93 | 201 | 1.7 | 1.7 | 0.00 | 0.00 | 0.00 | 48 | 1016.1 |
| 20260831005444 | 94 | 181 | 1.7 | 2.6 | 0.00 | 0.00 | 0.00 | 47 | 1016.0 |
| 20260831004943 | 94 | 163 | 1.7 | 1.7 | 0.00 | 0.00 | 0.00 | 47 | 1016.0 |
| 20260831004440 | 94 | 188 | 5.2 | 7.0 | 0.00 | 0.00 | 0.00 | 46 | 1015.9 |
| 20260831003936 | 94 | 192 | 2.6 | 4.3 | 0.00 | 0.00 | 0.00 | 46 | 1016.2 |
| 20260831003431 | 95 | 183 | 1.7 | 2.6 | 0.00 | 0.00 | 0.00 | 46 | 1015.7 |
| 20260831002931 | 95 | 210 | 0.9 | 0.9 | 0.00 | 0.00 | 0.00 | 46 | 1015.7 |
| 20260831002430 | 94 | 177 | 3.5 | 5.2 | 0.00 | 0.00 | 0.00 | 45 | 1016.1 |
| 20260831001926 | 93 | 201 | 2.6 | 2.6 | 0.00 | 0.00 | 0.00 | 46 | 1016.0 |
| 20260831001421 | 93 | 231 | 0.0 | 0.0 | 0.00 | 0.00 | 0.00 | 47 | 1015.8 |
| 20260831000918 | 94 | 208 | 0.9 | 0.9 | 0.00 | 0.00 | 0.00 | 45 | 1016.1 |
| 20260831000414 | 95 | 209 | 0.0 | 0.9 | 0.00 | 0.00 | 0.00 | 45 | 1015.8 |
| 20260830235912 | 95 | 208 | 1.7 | 1.7 | 0.00 | 0.00 | 0.00 | 44 | 1015.9 |
| 20260830235407 | 95 | 171 | 1.7 | 1.7 | 0.00 | 0.00 | 0.00 | 44 | 1015.9 |
| 20260830234902 | 95 | 208 | 2.6 | 2.6 | 0.00 | 0.00 | 0.00 | 44 | 1015.9 |
| 20260830234357 | 95 | 195 | 0.9 | 1.7 | 0.00 | 0.00 | 0.00 | 43 | 1016.1 |
| 20260830233854 | 95 | 217 | 1.7 | 2.6 | 0.00 | 0.00 | 0.00 | 44 | 1016.0 |
| 20260830233348 | 96 | 213 | 0.9 | 1.7 | 0.00 | 0.00 | 0.00 | 44 | 1016.0 |
| 20260830232844 | 96 | 136 | 4.3 | 5.2 | 0.00 | 0.00 | 0.00 | 42 | 1016.0 |
| 20260830232339 | 97 | 205 | 2.6 | 4.3 | 0.00 | 0.00 | 0.00 | 42 | 1015.9 |
| 20260830231836 | 97 | 184 | 2.6 | 2.6 | 0.00 | 0.00 | 0.00 | 43 | 1016.1 |
| 20260830231331 | 97 | 181 | 4.3 | 6.1 | 0.00 | 0.00 | 0.00 | 42 | 1016.1 |
| 20260830230830 | 96 | 195 | 1.7 | 1.7 | 0.00 | 0.00 | 0.00 | 43 | 1016.0 |
| 20260830230326 | 97 | 192 | 4.3 | 5.2 | 0.00 | 0.00 | 0.00 | 42 | 1016.3 |
| 20260830225825 | 97 | 159 | 2.6 | 4.3 | 0.00 | 0.00 | 0.00 | 42 | 1016.0 |
| 20260830225320 | 97 | 194 | 3.5 | 6.1 | 0.00 | 0.00 | 0.00 | 43 | 1015.9 |
| 20260830224815 | 97 | 152 | 4.3 | 5.2 | 0.00 | 0.00 | 0.00 | 43 | 1016.1 |
| 20260830224309 | 97 | 199 | 1.7 | 1.7 | 0.00 | 0.00 | 0.00 | 43 | 1016.2 |
| 20260830223806 | 98 | 190 | 2.6 | 5.2 | 0.00 | 0.00 | 0.00 | 42 | 1016.2 |
| 20260830223302 | 97 | 208 | 0.0 | 0.9 | 0.00 | 0.00 | 0.00 | 42 | 1016.2 |
| 20260830222755 | 98 | 113 | 3.5 | 6.1 | 0.00 | 0.00 | 0.00 | 42 | 1016.1 |
| 20260830222251 | 97 | 207 | 0.9 | 1.7 | 0.00 | 0.00 | 0.00 | 43 | 1016.3 |
| 20260830221746 | 98 | 194 | 4.3 | 5.2 | 0.00 | 0.00 | 0.00 | 42 | 1016.2 |
| 20260830221244 | 97 | 212 | 2.6 | 4.3 | 0.00 | 0.00 | 0.00 | 43 | 1016.3 |
| 20260830220743 | 97 | 217 | 0.0 | 0.0 | 0.00 | 0.00 | 0.00 | 43 | 1016.4 |
| 20260830220243 | 97 | 220 | 2.6 | 2.6 | 0.00 | 0.00 | 0.00 | 42 | 1016.5 |
| 20260830215741 | 96 | 182 | 3.5 | 4.3 | 0.00 | 0.00 | 0.00 | 44 | 1016.3 |
| 20260830215236 | 97 | 211 | 3.5 | 4.3 | 0.00 | 0.00 | 0.00 | 43 | 1016.5 |
| 20260830214731 | 97 | 185 | 4.3 | 5.2 | 0.00 | 0.00 | 0.00 | 43 | 1016.3 |
| 20260830214231 | 97 | 151 | 3.5 | 4.3 | 0.00 | 0.00 | 0.00 | 44 | 1016.5 |
| 20260830213730 | 97 | 162 | 2.6 | 2.6 | 0.00 | 0.00 | 0.00 | 44 | 1016.5 |
| 20260830213226 | 97 | 207 | 2.6 | 4.3 | 0.00 | 0.00 | 0.00 | 44 | 1016.8 |
| 20260830212721 | 97 | 196 | 2.6 | 4.3 | 0.00 | 0.00 | 0.00 | 44 | 1016.6 |
| 20260830212217 | 96 | 185 | 3.5 | 4.3 | 0.00 | 0.00 | 0.00 | 47 | 1016.8 |
| 20260830211712 | 94 | 145 | 3.5 | 4.3 | 0.00 | 0.00 | 0.00 | 48 | 1016.8 |
| 20260830211210 | 96 | 165 | 4.3 | 6.1 | 0.00 | 0.00 | 0.00 | 48 | 1017.1 |
| 20260830210707 | 97 | 209 | 2.6 | 4.3 | 0.00 | 0.00 | 0.00 | 46 | 1017.3 |
| 20260830210206 | 97 | 194 | 4.3 | 5.2 | 0.00 | 0.00 | 0.00 | 47 | 1017.1 |
| 20260830205703 | 97 | 178 | 2.6 | 4.3 | 0.00 | 0.00 | 0.00 | 45 | 1017.4 |
| 20260830205158 | 97 | 224 | 1.7 | 2.6 | 0.00 | 0.00 | 0.00 | 46 | 1017.2 |
| 20260830204658 | 97 | 256 | 0.9 | 0.9 | 0.00 | 0.00 | 0.00 | 46 | 1017.4 |
| 20260830204157 | 98 | 166 | 3.5 | 4.3 | 0.00 | 0.00 | 0.00 | 45 | 1017.9 |
| 20260830203654 | 98 | 164 | 4.3 | 5.2 | 0.00 | 0.00 | 0.00 | 45 | 1017.8 |
| 20260830203149 | 97 | 220 | 0.0 | 0.9 | 0.00 | 0.00 | 0.00 | 50 | 1017.5 |
| 20260830202648 | 97 | 134 | 4.3 | 6.1 | 0.00 | 0.00 | 0.00 | 45 | 1017.8 |
| 20260830202143 | 97 | 157 | 4.3 | 6.1 | 0.00 | 0.00 | 0.00 | 46 | 1017.7 |
| 20260830201643 | 96 | 154 | 4.3 | 5.2 | 0.00 | 0.00 | 0.00 | 47 | 1017.8 |
| 20260830201139 | 96 | 213 | 5.2 | 8.7 | 0.00 | 0.00 | 0.00 | 47 | 1018.0 |
| 20260830200634 | 97 | 192 | 4.3 | 5.2 | 0.00 | 0.00 | 0.00 | 47 | 1017.8 |
| 20260830200133 | 98 | 189 | 3.5 | 5.2 | 0.00 | 0.00 | 0.00 | 46 | 1018.1 |
| 20260830195629 | 97 | 124 | 2.6 | 4.3 | 0.00 | 0.00 | 0.00 | 47 | 1017.9 |
| 20260830195126 | 96 | 221 | 2.6 | 5.2 | 0.00 | 0.00 | 0.00 | 48 | 1018.4 |
| 20260830194621 | 97 | 135 | 3.5 | 4.3 | 0.00 | 0.00 | 0.00 | 47 | 1018.3 |
| 20260830194120 | 96 | 217 | 0.0 | 0.9 | 0.00 | 0.00 | 0.00 | 50 | 1018.4 |
| 20260830193620 | 96 | 191 | 2.6 | 4.3 | 0.00 | 0.00 | 0.00 | 50 | 1018.5 |
| 20260830193115 | 97 | 216 | 0.9 | 1.7 | 0.00 | 0.00 | 0.00 | 49 | 1018.8 |
| 20260830192611 | 97 | 88 | 2.6 | 4.3 | 0.00 | 0.00 | 0.00 | 49 | 1018.7 |
| 20260830192110 | 95 | 174 | 3.5 | 4.3 | 0.00 | 0.00 | 0.00 | 52 | 1018.8 |